Showing default

CHAMRAN-1, 61072

Orbit data source: Space-Track

CHAMRAN-1, 61072 is an Iranian payload satellite in LEO that was launched on Sat, 14 Sep 2024 UTC via a QAEM-100 launch vehicle from the Sharud Missile Test Site (SMTS). Payload-class satellites include a variety of spacecraft equipped with specific instruments for various scientific and technological missions. These include communications satellites like Starlink; space stations such as the ISS; scientific satellites like the Hubble; Earth observation satellites from companies like Planet Labs, Umbra, and HawkEye 360; GPS; miniature CubeSats for education and research; and military/defense satellites.

Loading next visibility...
Identifier
61072, 2024-165B
Orbit
LEO
Country
Flag of UnknownUnknown / IRAN
Related business
Manufacturer
IEI
Mission
Operational Defense Communications
Bus & Motor
Unknown
Mass
60 kg wet, 60 kg dry
Launch date (UTC)
2024-09-14 (1 year ago)
Launch vehicle
QAEM-100
Launch site
Sharud Missile Test Site (SMTS)
Object type
Payload
Rocket body
Debris
Shape & HBR
Box, 0.3 m
Radar Cross Section
0.375 m², Medium (>0.1 m² and < 1m²)

Expand to show TLE details & history
Last TLE update: 7 hours ago

TLE from 7 hours ago
0 CHAMRAN-1
1 61072U 24165B   25294.83263500  .00006980  00000-0  45460-3 0  9998
2 61072  64.0757 104.4954 0033020 311.1417  48.6848 15.08279978 60673
Epoch: 2025-10-21T19:58Z
TLE epoch observation values (Epoch: 2025-10-21T19:58:59.664Z)
Latitude
-0.00008°
Longitude
134.23184°
Altitude
528.375 km
Speed
7.608 km/s
True Right ascension
06h 57m 58s
True Declination
0° 00' 00"
Sunlit
Object was in daylight at epoch
Visualization orbit readout
Latitude
Unknown
Longitude
Unknown
Altitude
Unknown
Speed
Unknown
Apparent Right ascension
Unknown
Apparent Declination
Unknown
Sunlit
N/A
Visualization observer readout
Local Sidereal Time
21:51:09
Azimuth
Unknown
Elevation
Unknown
Doppler factor
Unknown
Orbital elements
Apogee altitude
562.946 km
Perigee altitude
517.258 km
Semi-major axis
6,918.239 km
Eccentricity
0.0033
Inclination
64.0757°
RAAN
104.4954°
Arg. of periapsis
311.1417°
True anomaly
48.96977°
Mean anomaly
48.6848°
Eccentric anomaly
48.82721°
Mean motion
3.77181 °/min
Orbital period
95.44 mins
BSTAR
0.0004546
Loading maneuver chart data...
Computing Atmospheric mass density...
Loading historical data...
Loading historical data...
Loading historical data...
Loading historical data...
Loading historical data...
Loading historical data...
Loading historical data...
Other satellites on launch #165 in the year 2024 (2024-09-14 UTC)

Documentation

Showing up to 5 results
|